This demonstration page uses our WeatherBlox Daily Observations layout. Learn more.

Left ArrowRight Arrow

38.20091, -84.87328

Hourly Observations for March 17, 2022

Temp ( °F °C ) Dew Point ( °F °C ) Humidity (%) Winds ( mph kmh ) Pressure ( in mb ) Visibility ( mi km ) Precip ( " mm )
12:53 am 00:53 Clear 51 10.6 46 7.8 83 83 WNW 3 6 29.91 1013 10 16 0.00 0.00
1:53 am 01:53 Clear 48 8.9 45 7.2 89 89 Calm 29.91 1013 10 16 0.00 0.00
2:53 am 02:53 Clear 47 8.3 44 6.7 90 90 Calm 29.91 1013 10 16 0.00 0.00
3:53 am 03:53 Clear 45 7.2 42 5.6 90 90 Calm 29.91 1013 10 16 0.00 0.00
4:53 am 04:53 Clear 43 6.1 42 5.6 97 97 Calm 29.91 1013 8 13 0.00 0.00
5:53 am 05:53 Mostly Clear 43 6.1 41 5 93 93 Calm 29.91 1013 10 16 0.00 0.00
6:53 am 06:53 Clear 43 6.1 41 5 93 93 Calm 29.92 1013 8 13 0.00 0.00
7:53 am 07:53 Sunny 41 5 39 3.9 93 93 Calm 29.94 1014 9 14 0.00 0.00
8:53 am 08:53 Sunny 46 7.8 44 6.7 93 93 Calm 29.96 1015 10 16 0.00 0.00
9:53 am 09:53 Sunny 56 13.3 49 9.4 77 77 Calm 29.97 1015 10 16 0.00 0.00
10:53 am 10:53 Sunny 63 17.2 53 11.7 70 70 W 8 13 29.98 1015 10 16 0.00 0.00
11:53 am 11:53 Sunny 67 19.4 53 11.7 61 61 WSW 10 17 29.98 1015 10 16 0.00 0.00
12:53 pm 12:53 Sunny 69 20.6 52 11.1 55 55 undefined N/A 29.96 1015 10 16 0.00 0.00
1:53 pm 13:53 Sunny 70 21.1 49 9.4 47 47 VRB 3 6 29.95 1014 10 16 0.00 0.00
2:53 pm 14:53 Mostly Sunny 70 21.1 48 8.9 46 46 S 6 9 29.92 1013 10 16 0.00 0.00
3:53 pm 15:53 Mostly Cloudy 71 21.7 50 10 47 47 SSE 8 13 29.91 1013 10 16 0.00 0.00
4:53 pm 16:53 Sunny 72 22.2 49 9.4 44 44 S 3 6 29.90 1013 10 16 0.00 0.00
5:53 pm 17:53 Mostly Cloudy 72 22.2 49 9.4 44 44 Calm 29.90 1013 10 16 0.00 0.00
6:53 pm 18:53 Cloudy 70 21.1 48 8.9 46 46 SSE 5 7 29.91 1013 10 16 0.00 0.00
7:53 pm 19:53 Partly Cloudy 66 18.9 49 9.4 54 54 S 5 7 29.93 1013 10 16 0.00 0.00
8:53 pm 20:53 Clear 60 15.6 49 9.4 67 67 Calm 29.93 1014 10 16 0.00 0.00
9:53 pm 21:53 Clear 61 16 N/A N/A Calm 29.94 1014 10 16 0.00 0.00
10:53 pm 22:53 Clear 54 12 N/A N/A Calm 29.95 1014 10 16 0.00 0.00
11:53 pm 23:53 Clear 52 11 N/A N/A Calm 29.94 1014 10 16 0.00 0.00

Powered by AerisWeather